Simultaneous Nadir Overpasses (SNOs) Predictions

Prediction of SNOs between NOAA-19 and TERRA Satellite Orbit:

Table of predicted SNOs for the next 14.0 days since TLE Epoch: 5/30/2020
Index Date (NOAA-19) Time (NOAA-19) Lat,Lon (NOAA-19) SZA (NOAA-19 ) Date (TERRA) Time (TERRA) Lat,Lon (TERRA) SZA (TERRA ) Distance(km) Time Diff (sec)
1 05/30/2020 09:39:57 79.47, 62.85 58.94 05/30/2020 09:40:58 79.45, 62.77 58.93 2.91 61
2 05/30/2020 10:30:52 -79.44,-129.53 121.07 05/30/2020 10:30:25 -79.45,-129.61 121.08 2.11 27
3 06/01/2020 16:04:15 79.47, -33.11 58.63 06/01/2020 16:04:08 79.45, -33.02 58.62 2.91 7
4 06/03/2020 21:37:30 -79.48, 63.59 121.65 06/03/2020 21:37:52 -79.45, 63.53 121.67 3.66 22
5 06/03/2020 22:28:31 79.41,-128.53 58.36 06/03/2020 22:27:18 79.45,-128.83 58.33 7.21 73
6 06/06/2020 03:10:51 79.49, 160.22 58.11 06/06/2020 03:11:34 79.48, 160.31 58.13 2.21 43
7 06/06/2020 04:01:48 -79.47, -32.26 121.89 06/06/2020 04:01:02 -79.45, -32.28 121.93 2.25 46
8 06/08/2020 08:44:07 -79.50,-103.07 122.10 06/08/2020 08:45:18 -79.48,-103.15 122.10 2.97 71
9 06/08/2020 09:35:08 79.47, 64.48 57.90 06/08/2020 09:34:44 79.47, 64.46 57.90 0.47 24
10 06/10/2020 15:08:25 -79.49, 161.05 122.28 06/10/2020 15:08:28 -79.47, 161.00 122.30 2.47 3
11 06/12/2020 20:41:44 79.50,-102.32 57.59 06/12/2020 20:42:10 79.48,-102.31 57.58 2.03 26




NCC Satellite Simultaneous Nadir Overpasses (SNOs) Prediction Service
